Location: Aalsum
(53.3404°N, 6.0062°E)
Time: 10:37:36
(UTC+00:00)

Cosmos 2278 - Pass Details

Date: 28 January 2023
Orbit: 838 x 853 km, 71.1° (Epoch: 19 March)

Event Time Altitude Azimuth Distance (km) Brightness Sun altitude
Rises 17:40:51 0° 178° (S) 3,387 7.0 -13.3°
Reaches altitude 10° 17:43:29 10° 169° (S) 2,459 6.1 -13.7°
Maximum altitude 17:48:28 33° 107° (ESE) 1,388 4.4 -14.4°
Enters shadow 17:51:34 20° 58° (ENE) 1,885 5.0 -14.8°
